Regional Weather Roundup
Issued by NWS

Home | Current Version | Previous Version | Graphics & Text | Print | Product List | Glossary On
Versions: 1 2 3 4 5 6 7 8 9 10 11 12 13 14 15 16 17 18 19 20 21 22 23 24 25 26 27 28 29 30 31 32 33 34 35 36 37 38 39 40 41 42 43 44 45 46 47 48 49
000
ASUS43 KDMX 241907
RWRIA

WEATHER ROUNDUP FOR IOWA
NATIONAL WEATHER SERVICE DES MOINES IA
200 PM CDT THU JUL 24 2014

NOTE: "FAIR" INDICATES FEW OR NO CLOUDS BELOW 12,000 FEET WITH NO
SIGNIFICANT WEATHER AND/OR OBSTRUCTIONS TO VISIBILITY.

* - THESE STATIONS ARE NOT NWS STATIONS...THUS NOT UNDER NWS
QUALITY CONTROL.  THEY ALSO DO NOT REPORT WEATHER SUCH
AS PRECIPITATION OR FOG.

IAZ001>003-012>014-020>022-031>034-043>046-242000-
   NORTHWEST IOWA

CITY           SKY/WX    TMP DP  RH WIND       PRES   REMARKS
CARROLL *      SUNNY     70  61  73 S6        30.11F
CHEROKEE *     TSTM      64  63  94 S8        30.11S
DENISON *      MOSUNNY   73  59  60 SE12G17   30.07F
LE MARS *      PTSUNNY   66  63  88 SE18G25   30.02F
ORANGE CITY *  LGT RAIN  64  61  88 SE17G23   29.99F
SHELDON *      CLOUDY    64  59  82 S23G33    29.97F
SIOUX CITY     PTSUNNY   77  63  61 E15       30.05R
SPENCER        LGT RAIN  69  60  73 S20G25    30.03F
STORM LAKE *   LGT RAIN  66  63  88 W3        30.16R
$$

IAZ055>058-069>071-079>083-090>094-242000-
   SOUTHWEST IOWA

CITY           SKY/WX    TMP DP  RH WIND       PRES   REMARKS
ATLANTIC *     SUNNY     75  61  60 S12       30.09R
AUDUBON *      SUNNY     79  64  61 S10G17    30.11F HX  81
CLARINDA *     SUNNY     79  61  53 S14       30.07F HX  80
COUNCIL BLFS * SUNNY     79  64  61 S15G25    30.02F HX  81
CRESTON *      SUNNY     75  61  60 S17G24    30.07F
HARLAN  *      SUNNY     75  63  64 SE12      30.12R
LAMONI         CLOUDY    75  59  57 S13       30.09F
RED OAK *      SUNNY     79  63  57 S16G26    30.04F HX  80
SHENANDOAH *   SUNNY     81  63  54 S18       30.06F HX  82
$$

IAZ047>049-059>061-072>074-084-242000-
   CENTRAL IOWA

CITY           SKY/WX    TMP DP  RH WIND       PRES   REMARKS
AMES           CLOUDY    78  60  53 SE12      30.09F
ANKENY *       SUNNY     79  59  50 SE13G20   30.08R HX  80
CHARITON *     SUNNY     77  59  53 S21       30.06F
DES MOINES     CLOUDY    80  58  46 SE13      30.08F HX  80
GRINNELL*      MOSUNNY   79  57  47 SE13      30.09F HX  80
KNOXVILLE *    SUNNY     77  59  53 S16G22    30.06F
MARSHALLTOWN   PTSUNNY   77  59  53 S10       30.09F
PELLA *        PTSUNNY   79  61  53 S9        30.10F HX  80
PERRY *          N/A     77  61  57 S10       30.10R
$$

IAZ004>006-015-016-023>025-035-036-242000-
   NORTH CENTRAL IOWA

CITY           SKY/WX    TMP DP  RH WIND       PRES   REMARKS
ALGONA *       SUNNY     75  61  60 S13       30.07F
CLARION *      SUNNY     77  59  53 S10       30.08F
ESTHERVILLE    CLOUDY    70  60  70 SE21G26   29.98F
FORT DODGE *   CLOUDY    75  57  53 S9        30.10F
MASON CITY     PTSUNNY   77  61  57 S10G22    30.09F
FOREST CITY *  MOSUNNY   77  59  53 S10       30.07F
IOWA FALLS *   PTSUNNY   75  59  57 SE8       30.10F
$$

IAZ007>011-017>019-026>030-037>042-050>054-066-242000-
   NORTHEAST IOWA

CITY           SKY/WX    TMP DP  RH WIND       PRES   REMARKS
CEDAR RAPIDS   SUNNY     76  59  55 S7        30.11F
CHARLES CITY * MOSUNNY   79  55  44 S9        30.09F
CLINTON *      MOSUNNY   75  55  50 S3        30.16F
DECORAH *      MOSUNNY   75  57  53 VRB7      30.09F
DUBUQUE        PTSUNNY   74  58  57 S9        30.13F
MONTICELLO *   MOSUNNY   77  61  57 VRB7G13   30.11F
OELWEIN *      MOSUNNY   77  59  53 S9        30.11F
WATERLOO       MOSUNNY   79  55  43 S8        30.08F
$$

IAZ064-065-067-068-078-242000-
   EAST CENTRAL IOWA

CITY           SKY/WX    TMP DP  RH WIND       PRES   REMARKS
DAVENPORT      SUNNY     78  55  44 SE7       30.14F
IOWA CITY      SUNNY     77  61  57 SE8       30.13F
MT. PLEASANT * PTSUNNY   77  54  44 CALM      30.15F
MUSCATINE *    SUNNY     79  57  47 VRB8G17   30.12F HX  80
QUAD CITIES    MOSUNNY   78  53  41 VRB5      30.13F
$$

IAZ062-063-075>077-085>089-095>099-242000-
   SOUTHEAST IOWA

CITY           SKY/WX    TMP DP  RH WIND       PRES   REMARKS
BURLINGTON     MOSUNNY   76  55  48 CALM      30.15F
FAIRFIELD *    MOSUNNY   75  59  57 SE9       30.14F
FORT MADISON * SUNNY     77  57  50 E3        30.16F
KEOKUK *       SUNNY     75  59  57 VRB3      30.14F
OSKALOOSA *      N/A     79  59  50 SE9       30.12F HX  80
CENTERVILLE *  SUNNY     77  63  61 S7        30.13F
OTTUMWA        MOSUNNY   76  61  59 SE8       30.10F
WASHINGTON *   SUNNY     77  61  57 SE9G15    30.13F
$$

ABBREVIATIONS USED IN REMARKS
   TC - TEMPERATURES IN CELSIUS
  WCI - WIND CHILL INDEX
   HX - HEAT INDEX
  VSB - VISIBILITY
$$



USA.gov is the U.S. government's official web portal to all federal, state and local government web resources and services.